Date,TemperatureHighF,TemperatureAvgF,TemperatureLowF,DewpointHighF,DewpointAvgF,DewpointLowF,HumidityHigh,HumidityAvg,HumidityLow,PressureMaxIn,PressureMinIn,WindSpeedMaxMPH,WindSpeedAvgMPH,GustSpeedMaxMPH,PrecipitationSumIn
2013-1-1,46.8,43.6,40.9,-99.9,-99.9,-99.9,0,0,100,0.00,40.00,3,1,14,0.18
2013-1-2,43.6,39.7,34.8,-99.9,-99.9,-99.9,0,0,100,0.00,40.00,2,1,9,0.03
2013-1-3,38.2,33.6,27.5,-99.9,-99.9,-99.9,0,0,100,0.00,40.00,1,0,8,0.02
2013-1-4,39.8,30.0,24.7,-99.9,-99.9,-99.9,0,0,100,0.00,40.00,3,2,12,0.01
2013-1-5,46.2,37.1,25.8,-99.9,-99.9,-99.9,0,0,100,0.00,40.00,5,2,15,0.00
2013-1-6,44.7,37.7,31.8,-99.9,-99.9,-99.9,0,0,100,0.00,40.00,3,2,15,0.00
2013-1-7,42.2,33.9,27.9,-99.9,-99.9,-99.9,0,0,100,0.00,40.00,5,2,14,0.00
2013-1-8,46.7,36.7,28.8,-99.9,-99.9,-99.9,0,0,100,0.00,40.00,2,1,11,0.00
2013-1-9,55.6,49.4,41.1,-99.9,-99.9,-99.9,0,0,100,0.00,40.00,3,1,10,0.00
2013-1-10,51.8,49.8,45.1,-99.9,-99.9,-99.9,0,0,100,0.00,40.00,4,1,10,0.00
2013-1-11,54.0,47.2,42.4,-99.9,-99.9,-99.9,0,0,100,0.00,40.00,3,1,13,0.36
2013-1-12,63.8,56.9,53.8,-99.9,-99.9,-99.9,0,0,100,0.00,40.00,2,1,12,0.00
2013-1-13,60.6,55.8,52.6,-99.9,-99.9,-99.9,0,0,100,0.00,40.00,4,2,14,0.00
2013-1-14,56.5,54.8,47.9,-99.9,-99.9,-99.9,0,0,100,0.00,40.00,4,1,13,2.39
2013-1-15,51.3,45.1,40.8,-99.9,-99.9,-99.9,0,0,100,0.00,40.00,1,0,8,1.72
2013-1-16,54.9,49.5,46.0,-99.9,-99.9,-99.9,0,0,100,0.00,40.00,3,1,12,0.30
2013-1-17,48.6,41.0,29.5,-99.9,-99.9,-99.9,0,0,100,0.00,40.00,4,1,13,1.53
2013-1-18,36.4,29.7,23.8,-99.9,-99.9,-99.9,0,0,100,0.00,40.00,3,1,13,0.16
2013-1-19,44.0,35.1,26.7,-99.9,-99.9,-99.9,0,0,100,0.00,40.00,2,1,10,0.23
2013-1-20,46.4,39.5,35.6,-99.9,-99.9,-99.9,0,0,100,0.00,40.00,5,3,18,0.02
2013-1-21,44.1,36.2,25.9,-99.9,-99.9,-99.9,0,0,100,0.00,40.00,5,3,18,0.00
2013-1-22,26.8,21.7,17.6,-99.9,-99.9,-99.9,0,0,100,0.00,40.00,6,4,19,0.00
2013-1-23,34.7,27.5,19.2,-99.9,-99.9,-99.9,0,0,100,0.00,40.00,5,3,19,0.00
2013-1-24,35.3,29.5,18.6,-99.9,-99.9,-99.9,0,0,100,0.00,40.00,7,4,33,0.00
2013-1-25,35.9,23.0,15.4,-99.9,-99.9,-99.9,0,0,100,0.00,40.00,4,2,15,0.00
2013-1-26,39.3,33.1,28.3,-99.9,-99.9,-99.9,0,0,100,0.00,40.00,4,1,14,0.08
2013-1-27,33.8,30.2,25.3,-99.9,-99.9,-99.9,0,0,100,0.00,40.00,2,0,7,0.03
2013-1-28,53.6,44.3,31.9,-99.9,-99.9,-99.9,0,0,100,0.00,40.00,3,1,14,0.21
2013-1-29,62.8,54.6,47.8,-99.9,-99.9,-99.9,0,0,100,0.00,40.00,2,1,10,0.03
2013-1-30,56.3,53.4,42.3,-99.9,-99.9,-99.9,0,0,100,0.00,40.00,7,5,29,3.98
2013-1-31,41.8,29.7,25.2,-99.9,-99.9,-99.9,0,0,100,0.00,40.00,6,4,22,0.03
2013-2-1,32.4,22.7,16.8,-99.9,-99.9,-99.9,0,0,100,0.00,40.00,6,3,23,0.00
2013-2-2,33.0,26.5,18.0,-99.9,-99.9,-99.9,0,0,100,0.00,40.00,3,1,11,0.01
2013-2-3,33.7,28.4,23.0,-99.9,-99.9,-99.9,0,0,100,0.00,40.00,7,4,28,0.07
2013-2-4,42.3,31.5,21.8,-99.9,-99.9,-99.9,0,0,100,0.00,40.00,3,1,14,0.06
2013-2-5,43.0,38.6,35.0,-99.9,-99.9,-99.9,0,0,100,0.00,40.00,3,2,17,0.01
2013-2-6,48.7,40.9,33.3,-99.9,-99.9,-99.9,0,0,100,0.00,40.00,4,2,16,0.00
2013-2-7,39.9,37.8,35.9,-99.9,-99.9,-99.9,0,0,100,0.00,40.00,3,1,10,0.72
2013-2-8,45.3,38.6,29.5,-99.9,-99.9,-99.9,0,0,100,0.00,40.00,6,2,29,0.04
2013-2-9,48.2,36.6,27.7,-99.9,-99.9,-99.9,0,0,100,0.00,40.00,6,2,22,0.00
2013-2-10,45.8,39.0,34.9,-99.9,-99.9,-99.9,0,0,100,0.00,40.00,4,1,13,0.21
2013-2-11,53.5,46.8,40.3,-99.9,-99.9,-99.9,0,0,100,0.00,40.00,4,2,16,0.09
2013-2-12,51.4,41.9,35.3,-99.9,-99.9,-99.9,0,0,100,0.00,40.00,5,2,19,0.04
2013-2-13,41.0,36.7,31.6,-99.9,-99.9,-99.9,0,0,100,0.00,40.00,5,1,21,0.21
2013-2-14,45.3,35.4,25.4,-99.9,-99.9,-99.9,0,0,100,0.00,40.00,3,1,13,0.00
2013-2-15,51.9,39.8,32.7,-99.9,-99.9,-99.9,0,0,100,0.00,40.00,4,1,14,0.00
2013-2-16,32.2,27.3,19.6,-99.9,-99.9,-99.9,0,0,100,0.00,40.00,5,2,21,0.00
2013-2-17,28.8,22.0,15.0,-99.9,-99.9,-99.9,0,0,100,0.00,40.00,6,4,27,0.00
2013-2-18,44.8,33.3,22.7,-99.9,-99.9,-99.9,0,0,100,0.00,40.00,4,2,13,0.00
2013-2-19,43.4,35.4,28.7,-99.9,-99.9,-99.9,0,0,100,0.00,40.00,5,3,18,0.07
2013-2-20,42.6,32.0,24.0,-99.9,-99.9,-99.9,0,0,100,0.00,40.00,5,3,23,0.00
2013-2-21,49.9,39.3,28.5,-99.9,-99.9,-99.9,0,0,100,0.00,40.00,2,1,9,0.09
2013-2-22,36.5,33.7,31.3,-99.9,-99.9,-99.9,0,0,100,0.00,40.00,1,0,9,0.32
2013-2-23,49.4,44.8,37.3,-99.9,-99.9,-99.9,0,0,100,0.00,40.00,3,1,15,0.36
2013-2-24,49.9,40.2,32.7,-99.9,-99.9,-99.9,0,0,100,0.00,40.00,4,2,15,0.01
2013-2-25,38.8,33.9,29.7,-99.9,-99.9,-99.9,0,0,100,0.00,40.00,6,1,10,0.00
2013-2-26,31.7,28.8,25.6,-99.9,-99.9,-99.9,0,0,100,0.00,40.00,3,2,11,0.57
2013-2-27,44.6,36.4,30.8,-99.9,-99.9,-99.9,0,0,100,0.00,40.00,3,1,13,0.15
2013-2-28,33.7,30.1,27.9,-99.9,-99.9,-99.9,0,0,100,0.00,40.00,4,2,20,0.01
2013-3-1,35.9,30.5,26.9,-99.9,-99.9,-99.9,0,0,100,0.00,40.00,3,1,13,0.02
2013-3-2,35.1,29.7,21.5,-99.9,-99.9,-99.9,0,0,100,0.00,40.00,3,1,12,0.02
2013-3-3,31.1,23.0,16.6,-99.9,-99.9,-99.9,0,0,100,0.00,40.00,4,3,18,0.01
2013-3-4,43.7,31.5,18.9,-99.9,-99.9,-99.9,0,0,100,0.00,40.00,6,2,25,0.00
2013-3-5,43.4,39.4,33.6,-99.9,-99.9,-99.9,0,0,100,0.00,40.00,5,1,17,1.04
2013-3-6,32.0,26.5,21.7,-99.9,-99.9,-99.9,0,0,100,0.00,40.00,7,4,25,0.02
2013-3-7,39.0,29.2,22.8,-99.9,-99.9,-99.9,0,0,100,0.00,40.00,3,2,16,0.02
2013-3-8,42.5,32.1,23.0,-99.9,-99.9,-99.9,0,0,100,0.00,40.00,6,2,13,0.00
2013-3-9,52.4,42.0,33.4,-99.9,-99.9,-99.9,0,0,100,0.00,40.00,3,1,12,0.00
2013-3-10,56.5,46.2,37.8,-99.9,-99.9,-99.9,0,0,100,0.00,40.00,3,2,11,0.00
2013-3-11,47.2,43.9,41.5,-99.9,-99.9,-99.9,0,0,100,0.00,40.00,6,4,19,0.58
2013-3-12,50.1,44.3,34.4,-99.9,-99.9,-99.9,0,0,100,0.00,40.00,5,2,15,0.67
2013-3-13,37.7,32.2,24.5,-99.9,-99.9,-99.9,0,0,100,0.00,40.00,5,3,19,0.01
2013-3-14,41.4,29.3,19.4,-99.9,-99.9,-99.9,0,0,100,0.00,40.00,4,2,20,0.00
2013-3-15,58.6,43.0,28.4,-99.9,-99.9,-99.9,0,0,100,0.00,40.00,4,2,19,0.00
2013-3-16,67.4,56.6,47.1,-99.9,-99.9,-99.9,0,0,100,0.00,40.00,5,3,20,0.03
2013-3-17,63.5,53.5,40.1,-99.9,-99.9,-99.9,0,0,100,0.00,40.00,6,2,14,0.00
2013-3-18,43.2,37.4,33.2,-99.9,-99.9,-99.9,0,0,100,0.00,40.00,2,1,7,0.64
2013-3-19,50.6,43.1,34.0,-99.9,-99.9,-99.9,0,0,100,0.00,40.00,4,2,17,0.03
2013-3-20,48.1,36.5,28.3,-99.9,-99.9,-99.9,0,0,100,0.00,40.00,3,2,16,0.00
2013-3-21,32.1,25.3,17.5,-99.9,-99.9,-99.9,0,0,100,0.00,40.00,6,3,18,0.03
2013-3-22,41.9,31.6,20.0,-99.9,-99.9,-99.9,0,0,100,0.00,40.00,3,1,10,0.00
2013-3-23,48.3,40.4,34.5,-99.9,-99.9,-99.9,0,0,100,0.00,40.00,2,0,8,0.00
2013-3-24,40.4,35.5,32.1,-99.9,-99.9,-99.9,0,0,100,0.00,40.00,4,2,16,0.78
2013-3-25,32.2,28.2,24.3,-99.9,-99.9,-99.9,0,0,100,0.00,40.00,5,2,24,0.09
2013-3-26,35.3,27.7,22.5,-99.9,-99.9,-99.9,0,0,100,0.00,40.00,5,3,21,0.13
2013-3-27,35.7,28.6,22.7,-99.9,-99.9,-99.9,0,0,100,0.00,40.00,3,2,14,0.09
2013-3-28,42.9,32.0,23.0,-99.9,-99.9,-99.9,0,0,100,0.00,40.00,3,1,13,0.00
2013-3-29,50.7,37.4,29.0,-99.9,-99.9,-99.9,0,0,100,0.00,40.00,3,1,14,0.00
2013-3-30,55.5,43.9,34.3,-99.9,-99.9,-99.9,0,0,100,0.00,40.00,3,1,10,0.00
2013-3-31,56.5,47.9,42.6,-99.9,-99.9,-99.9,0,0,100,0.00,40.00,4,1,14,0.58
2013-4-1,55.1,45.7,36.2,-99.9,-99.9,-99.9,0,0,100,0.00,40.00,3,2,16,0.02
2013-4-2,52.0,41.3,32.0,-99.9,-99.9,-99.9,0,0,100,0.00,40.00,3,2,15,0.00
2013-4-3,53.7,42.7,31.5,-99.9,-99.9,-99.9,0,0,100,0.00,40.00,3,2,11,0.00
2013-4-4,42.2,35.0,31.3,-99.9,-99.9,-99.9,0,0,100,0.00,40.00,4,2,11,0.41
2013-4-5,54.2,41.9,34.5,-99.9,-99.9,-99.9,0,0,100,0.00,40.00,4,1,13,0.30
2013-4-6,56.2,42.3,37.4,-99.9,-99.9,-99.9,0,0,100,0.00,40.00,4,1,12,0.01
2013-4-7,64.2,51.0,40.6,-99.9,-99.9,-99.9,0,0,100,0.00,40.00,3,1,11,0.00
2013-4-8,69.5,58.6,48.4,-99.9,-99.9,-99.9,0,0,100,0.00,40.00,3,2,14,0.00
2013-4-9,75.7,62.7,52.9,-99.9,-99.9,-99.9,0,0,100,0.00,40.00,4,1,15,0.00
2013-4-10,79.3,65.6,56.5,-99.9,-99.9,-99.9,0,0,100,0.00,40.00,4,1,15,0.00
2013-4-11,72.9,63.0,56.0,-99.9,-99.9,-99.9,0,0,100,0.00,40.00,5,2,15,0.22
2013-4-12,68.7,58.2,46.5,-99.9,-99.9,-99.9,0,0,100,0.00,40.00,6,3,27,2.41
2013-4-13,66.3,52.6,42.5,-99.9,-99.9,-99.9,0,0,100,0.00,40.00,4,2,19,0.00
2013-4-14,67.2,56.0,46.9,-99.9,-99.9,-99.9,0,0,100,0.00,40.00,4,2,14,0.03
2013-4-15,52.1,50.2,48.0,-99.9,-99.9,-99.9,0,0,100,0.00,40.00,4,1,12,0.44
2013-4-16,69.6,58.9,51.5,-99.9,-99.9,-99.9,0,0,100,0.00,40.00,3,1,10,0.01
2013-4-17,68.1,59.3,55.1,-99.9,-99.9,-99.9,0,0,100,0.00,40.00,2,0,10,0.29
2013-4-18,68.3,60.6,56.3,-99.9,-99.9,-99.9,0,0,100,0.00,40.00,5,2,16,0.05
2013-4-19,59.4,55.9,40.6,-99.9,-99.9,-99.9,0,0,100,0.00,40.00,6,4,22,1.30
2013-4-20,56.1,43.0,32.6,-99.9,-99.9,-99.9,0,0,100,0.00,40.00,4,2,15,0.00
2013-4-21,56.6,45.3,38.7,-99.9,-99.9,-99.9,0,0,100,0.00,40.00,5,2,15,0.00
2013-4-22,58.0,46.3,38.1,-99.9,-99.9,-99.9,0,0,100,0.00,40.00,4,2,15,0.00
2013-4-23,66.9,52.0,39.4,-99.9,-99.9,-99.9,0,0,100,0.00,40.00,3,1,12,0.00
2013-4-24,69.9,56.7,46.8,-99.9,-99.9,-99.9,0,0,100,0.00,40.00,3,1,10,0.02
2013-4-25,65.6,51.1,36.7,-99.9,-99.9,-99.9,0,0,100,0.00,40.00,3,2,13,0.00
2013-4-26,63.9,51.3,40.0,-99.9,-99.9,-99.9,0,0,100,0.00,40.00,3,2,14,0.00
2013-4-27,54.3,49.9,47.0,-99.9,-99.9,-99.9,0,0,100,0.00,40.00,2,0,7,0.25
2013-4-28,48.9,46.9,43.8,-99.9,-99.9,-99.9,0,0,100,0.00,40.00,3,1,12,1.00
2013-4-29,62.8,54.6,48.0,-99.9,-99.9,-99.9,0,0,100,0.00,40.00,2,1,9,0.08
2013-4-30,64.0,55.9,52.9,-99.9,-99.9,-99.9,0,0,100,0.00,40.00,3,1,10,0.03
2013-5-1,55.1,51.8,48.6,-99.9,-99.9,-99.9,0,0,100,0.00,40.00,7,3,20,0.01
2013-5-2,52.5,49.3,46.3,-99.9,-99.9,-99.9,0,0,100,0.00,40.00,7,2,18,0.40
2013-5-3,52.2,48.3,44.9,-99.9,-99.9,-99.9,0,0,100,0.00,40.00,7,4,20,0.24
2013-5-4,48.2,43.2,39.5,-99.9,-99.9,-99.9,0,0,100,0.00,40.00,8,5,25,0.09
2013-5-5,48.3,42.9,39.5,-99.9,-99.9,-99.9,0,0,100,0.00,40.00,11,6,28,3.63
2013-5-6,60.7,50.6,46.4,-99.9,-99.9,-99.9,0,0,100,0.00,40.00,12,3,34,1.81
2013-5-7,58.4,49.9,46.1,-99.9,-99.9,-99.9,0,0,100,0.00,40.00,3,1,10,0.26
2013-5-8,60.5,52.5,46.7,-99.9,-99.9,-99.9,0,0,100,0.00,40.00,2,1,12,0.02
2013-5-9,73.0,59.4,48.0,-99.9,-99.9,-99.9,0,0,100,0.00,40.00,3,1,12,0.01
2013-5-10,74.8,64.2,56.3,-99.9,-99.9,-99.9,0,0,100,0.00,40.00,4,1,12,0.00
2013-5-11,69.3,60.3,55.6,-99.9,-99.9,-99.9,0,0,100,0.00,40.00,3,1,13,0.25
2013-5-12,61.5,52.2,44.2,-99.9,-99.9,-99.9,0,0,100,0.00,40.00,4,2,23,0.00
2013-5-13,60.7,47.8,37.6,-99.9,-99.9,-99.9,0,0,100,0.00,40.00,3,2,14,0.00
2013-5-14,69.6,53.4,40.2,-99.9,-99.9,-99.9,0,0,100,0.00,40.00,3,1,11,0.00
2013-5-15,83.7,68.5,55.0,-99.9,-99.9,-99.9,0,0,100,0.00,40.00,5,2,18,0.00
2013-5-16,77.3,65.9,59.9,-99.9,-99.9,-99.9,0,0,100,0.00,40.00,3,2,13,0.00
2013-5-17,75.0,65.5,58.7,-99.9,-99.9,-99.9,0,0,100,0.00,40.00,3,1,11,0.00
2013-5-18,62.8,59.9,58.8,-99.9,-99.9,-99.9,0,0,100,0.00,40.00,1,0,8,1.11
2013-5-19,64.0,60.5,58.5,-99.9,-99.9,-99.9,0,0,100,0.00,40.00,1,0,9,0.38
2013-5-20,69.6,63.1,58.5,-99.9,-99.9,-99.9,0,0,100,0.00,40.00,2,0,7,0.03
2013-5-21,76.0,66.5,59.3,-99.9,-99.9,-99.9,0,0,100,0.00,40.00,2,0,9,0.34
2013-5-22,74.7,63.0,58.2,-99.9,-99.9,-99.9,0,0,100,0.00,40.00,2,0,11,0.93
2013-5-23,73.5,62.8,56.4,-99.9,-99.9,-99.9,0,0,100,0.00,40.00,2,1,11,0.13
2013-5-24,63.3,53.9,46.7,-99.9,-99.9,-99.9,0,0,100,0.00,40.00,4,2,18,0.01
2013-5-25,71.8,54.8,42.7,-99.9,-99.9,-99.9,0,0,100,0.00,40.00,2,1,11,0.00
2013-5-26,69.8,58.0,50.0,-99.9,-99.9,-99.9,0,0,100,0.00,40.00,2,0,8,0.00
2013-5-27,73.4,62.3,54.6,-99.9,-99.9,-99.9,0,0,100,0.00,40.00,2,0,9,0.00
2013-5-28,74.2,65.5,58.6,-99.9,-99.9,-99.9,0,0,100,0.00,40.00,2,0,8,0.00
2013-5-29,76.0,66.6,58.7,-99.9,-99.9,-99.9,0,0,100,0.00,40.00,2,0,8,0.00
2013-5-30,74.2,66.2,59.4,-99.9,-99.9,-99.9,0,0,100,0.00,40.00,2,0,9,0.00
2013-5-31,77.4,67.4,61.7,-99.9,-99.9,-99.9,0,0,100,0.00,40.00,2,0,7,0.00
2013-6-1,78.3,67.7,62.7,-99.9,-99.9,-99.9,0,0,100,0.00,40.00,2,1,9,0.00
2013-6-2,65.9,63.6,61.7,-99.9,-99.9,-99.9,0,0,100,0.00,40.00,1,0,9,0.45
2013-6-3,75.7,65.5,59.3,-99.9,-99.9,-99.9,0,0,100,0.00,40.00,2,0,10,0.01
2013-6-4,65.6,61.7,58.9,-99.9,-99.9,-99.9,0,0,100,0.00,40.00,1,0,8,0.05
2013-6-5,64.3,61.6,59.8,-99.9,-99.9,-99.9,0,0,100,0.00,40.00,1,0,8,0.18
2013-6-6,67.2,63.4,60.4,-99.9,-99.9,-99.9,0,0,100,0.00,40.00,0,0,5,0.16
2013-6-7,70.9,63.7,60.7,-99.9,-99.9,-99.9,0,0,100,0.00,40.00,1,0,10,0.49
2013-6-8,70.2,63.8,56.9,-99.9,-99.9,-99.9,0,0,100,0.00,40.00,1,0,6,0.49
2013-6-9,70.2,64.6,60.2,-99.9,-99.9,-99.9,0,0,100,0.00,40.00,1,0,7,0.64
2013-6-10,68.6,63.6,60.5,-99.9,-99.9,-99.9,0,0,100,0.00,40.00,2,1,15,1.28
2013-6-11,73.7,64.5,57.7,-99.9,-99.9,-99.9,0,0,100,0.00,40.00,2,1,11,0.10
2013-6-12,84.1,72.1,64.0,-99.9,-99.9,-99.9,0,0,100,0.00,40.00,2,1,10,0.00
2013-6-13,80.7,69.7,62.7,-99.9,-99.9,-99.9,0,0,100,0.00,40.00,4,2,17,0.16
2013-6-14,72.1,62.0,55.3,-99.9,-99.9,-99.9,0,0,100,0.00,40.00,2,1,11,0.00
2013-6-15,74.2,64.1,56.2,-99.9,-99.9,-99.9,0,0,100,0.00,40.00,1,0,7,0.00
2013-6-16,74.8,67.3,61.0,-99.9,-99.9,-99.9,0,0,100,0.00,40.00,1,0,6,0.00
2013-6-17,72.8,66.8,61.1,-99.9,-99.9,-99.9,0,0,100,0.00,40.00,1,0,6,0.11
2013-6-18,68.3,65.1,60.3,-99.9,-99.9,-99.9,0,0,100,0.00,40.00,1,0,7,0.37
2013-6-19,69.3,63.6,57.4,-99.9,-99.9,-99.9,0,0,100,0.00,40.00,1,0,6,0.01
2013-6-20,68.6,63.8,61.4,-99.9,-99.9,-99.9,0,0,100,0.00,40.00,2,0,8,0.09
2013-6-21,74.0,65.4,60.4,-99.9,-99.9,-99.9,0,0,100,0.00,40.00,1,0,8,0.00
2013-6-22,74.7,65.7,58.6,-99.9,-99.9,-99.9,0,0,100,0.00,40.00,2,0,9,0.00
2013-6-23,72.6,66.6,61.3,-99.9,-99.9,-99.9,0,0,100,0.00,40.00,1,0,5,0.00
2013-6-24,73.3,67.3,62.5,-99.9,-99.9,-99.9,0,0,100,0.00,40.00,1,0,7,0.75
2013-6-25,72.9,66.7,61.0,-99.9,-99.9,-99.9,0,0,100,0.00,40.00,1,0,7,0.34
2013-6-26,77.3,68.8,63.0,-99.9,-99.9,-99.9,0,0,100,0.00,40.00,1,0,9,0.02
2013-6-27,76.0,67.8,61.7,-99.9,-99.9,-99.9,0,0,100,0.00,40.00,2,1,16,0.04
2013-6-28,76.7,68.3,62.9,-99.9,-99.9,-99.9,0,0,100,0.00,40.00,3,1,13,0.07
2013-6-29,76.2,66.6,60.4,-99.9,-99.9,-99.9,0,0,100,0.00,40.00,1,0,8,0.01
2013-6-30,72.8,66.9,62.4,-99.9,-99.9,-99.9,0,0,100,0.00,40.00,2,0,7,0.90
2013-7-1,67.7,64.5,61.9,-99.9,-99.9,-99.9,0,0,100,0.00,40.00,3,0,13,1.04
2013-7-2,67.0,64.3,62.5,-99.9,-99.9,-99.9,0,0,100,0.00,40.00,2,0,9,1.10
2013-7-3,67.4,64.4,59.5,-99.9,-99.9,-99.9,0,0,100,0.00,40.00,2,0,15,1.58
2013-7-4,67.3,64.2,60.2,-99.9,-99.9,-99.9,0,0,100,0.00,40.00,2,0,10,2.80
2013-7-5,72.1,66.1,63.9,-99.9,-99.9,-99.9,0,0,100,0.00,40.00,2,0,13,0.18
2013-7-6,70.0,66.8,64.7,-99.9,-99.9,-99.9,0,0,100,0.00,40.00,1,0,10,1.54
2013-7-7,72.9,67.4,64.9,-99.9,-99.9,-99.9,0,0,100,0.00,40.00,1,0,9,2.15
2013-7-8,73.8,68.1,62.8,-99.9,-99.9,-99.9,0,0,100,0.00,40.00,2,0,8,0.00
2013-7-9,77.1,69.5,64.4,-99.9,-99.9,-99.9,0,0,100,0.00,40.00,1,0,5,0.61
2013-7-10,73.5,67.9,65.0,-99.9,-99.9,-99.9,0,0,100,0.00,40.00,1,0,7,1.30
2013-7-11,69.8,66.9,64.3,-99.9,-99.9,-99.9,0,0,100,0.00,40.00,0,0,4,0.00
2013-7-12,70.1,65.3,60.1,-99.9,-99.9,-99.9,0,0,100,0.00,40.00,2,0,12,0.20
2013-7-13,65.1,62.3,59.9,-99.9,-99.9,-99.9,0,0,100,0.00,40.00,2,1,11,0.34
2013-7-14,67.9,65.4,63.9,-99.9,-99.9,-99.9,0,0,100,0.00,40.00,4,2,19,1.98
2013-7-15,72.8,67.5,64.4,-99.9,-99.9,-99.9,0,0,100,0.00,40.00,3,1,14,0.01
2013-7-16,79.6,70.5,64.1,-99.9,-99.9,-99.9,0,0,100,0.00,40.00,1,0,9,0.00
2013-7-17,79.0,69.7,64.5,-99.9,-99.9,-99.9,0,0,100,0.00,40.00,2,0,23,3.20
2013-7-18,78.7,71.0,64.1,-99.9,-99.9,-99.9,0,0,100,0.00,40.00,1,0,7,0.00
2013-7-19,78.0,71.3,66.4,-99.9,-99.9,-99.9,0,0,100,0.00,40.00,1,0,5,0.00
2013-7-20,74.8,69.3,66.5,-99.9,-99.9,-99.9,0,0,100,0.00,40.00,1,0,5,0.02
2013-7-21,72.9,67.8,65.2,-99.9,-99.9,-99.9,0,0,100,0.00,40.00,1,0,7,1.52
2013-7-22,74.6,67.9,62.9,-99.9,-99.9,-99.9,0,0,100,0.00,40.00,1,0,8,0.41
2013-7-23,76.1,68.1,63.7,-99.9,-99.9,-99.9,0,0,100,0.00,40.00,2,0,14,0.01
2013-7-24,75.2,68.9,64.5,-99.9,-99.9,-99.9,0,0,100,0.00,40.00,1,0,8,0.00
2013-7-25,69.3,64.9,60.0,-99.9,-99.9,-99.9,0,0,100,0.00,40.00,1,0,5,0.38
2013-7-26,72.6,65.9,60.5,-99.9,-99.9,-99.9,0,0,100,0.00,40.00,1,0,6,0.33
2013-7-27,67.2,64.6,61.9,-99.9,-99.9,-99.9,0,0,100,0.00,40.00,1,0,10,2.34
2013-7-28,72.7,65.6,61.8,-99.9,-99.9,-99.9,0,0,100,0.00,40.00,1,0,7,0.01
2013-7-29,73.2,64.4,59.1,-99.9,-99.9,-99.9,0,0,100,0.00,40.00,1,0,8,0.00
2013-7-30,69.0,64.4,61.2,-99.9,-99.9,-99.9,0,0,100,0.00,40.00,1,0,5,0.00
2013-7-31,65.2,62.8,59.0,-99.9,-99.9,-99.9,0,0,100,0.00,40.00,0,0,4,0.26
2013-8-1,73.9,66.4,62.9,-99.9,-99.9,-99.9,0,0,100,0.00,40.00,0,0,6,0.52
2013-8-2,73.8,66.5,60.0,-99.9,-99.9,-99.9,0,0,100,0.00,40.00,0,0,5,0.00
2013-8-3,75.2,68.6,65.1,-99.9,-99.9,-99.9,0,0,100,0.00,40.00,1,0,7,0.00
2013-8-4,77.2,68.0,63.2,-99.9,-99.9,-99.9,0,0,100,0.00,40.00,2,1,10,0.03
2013-8-5,71.9,66.2,61.6,-99.9,-99.9,-99.9,0,0,100,0.00,40.00,1,0,5,0.00
2013-8-6,69.4,66.2,64.0,-99.9,-99.9,-99.9,0,0,100,0.00,40.00,1,0,7,0.05
2013-8-7,67.5,65.6,64.4,-99.9,-99.9,-99.9,0,0,100,0.00,40.00,1,0,9,0.35
2013-8-8,73.6,68.2,64.3,-99.9,-99.9,-99.9,0,0,100,0.00,40.00,0,0,6,0.12
2013-8-9,77.7,69.7,65.7,-99.9,-99.9,-99.9,0,0,100,0.00,40.00,1,0,6,0.01
2013-8-10,78.8,70.4,65.4,-99.9,-99.9,-99.9,0,0,100,0.00,40.00,2,0,8,0.33
2013-8-11,78.1,70.0,64.3,-99.9,-99.9,-99.9,0,0,100,0.00,40.00,1,0,10,0.08
2013-8-12,76.7,69.5,65.0,-99.9,-99.9,-99.9,0,0,100,0.00,40.00,1,0,6,0.03
2013-8-13,75.4,67.8,64.0,-99.9,-99.9,-99.9,0,0,100,0.00,40.00,1,0,11,0.10
2013-8-14,70.1,63.2,59.1,-99.9,-99.9,-99.9,0,0,100,0.00,40.00,1,0,7,0.00
2013-8-15,59.9,57.3,55.3,-99.9,-99.9,-99.9,0,0,100,0.00,40.00,1,0,7,0.00
2013-8-16,66.5,58.7,54.3,-99.9,-99.9,-99.9,0,0,100,0.00,40.00,1,0,7,0.00
2013-8-17,59.5,57.5,54.5,-99.9,-99.9,-99.9,0,0,100,0.00,40.00,1,0,8,0.36
2013-8-18,65.1,61.3,58.1,-99.9,-99.9,-99.9,0,0,100,0.00,40.00,0,0,5,1.55
2013-8-19,64.1,62.4,60.2,-99.9,-99.9,-99.9,0,0,100,0.00,40.00,0,0,5,0.44
2013-8-20,69.6,65.0,60.8,-99.9,-99.9,-99.9,0,0,100,0.00,40.00,1,0,5,0.00
2013-8-21,69.5,65.4,62.9,-99.9,-99.9,-99.9,0,0,100,0.00,40.00,0,0,5,0.00
2013-8-22,73.4,67.2,61.9,-99.9,-99.9,-99.9,0,0,100,0.00,40.00,1,0,6,0.00
2013-8-23,73.6,67.4,63.0,-99.9,-99.9,-99.9,0,0,100,0.00,40.00,1,0,8,0.00
2013-8-24,72.3,64.8,60.0,-99.9,-99.9,-99.9,0,0,100,0.00,40.00,3,1,9,0.00
2013-8-25,68.5,62.3,57.0,-99.9,-99.9,-99.9,0,0,100,0.00,40.00,2,0,8,0.00
2013-8-26,72.8,63.9,56.7,-99.9,-99.9,-99.9,0,0,100,0.00,40.00,2,0,8,0.00
2013-8-27,75.8,67.8,62.1,-99.9,-99.9,-99.9,0,0,100,0.00,40.00,2,0,10,0.00
2013-8-28,76.6,70.2,65.6,-99.9,-99.9,-99.9,0,0,100,0.00,40.00,2,0,10,0.00
2013-8-29,81.1,72.4,67.3,-99.9,-99.9,-99.9,0,0,100,0.00,40.00,2,1,11,0.00
2013-8-30,73.0,67.7,64.8,-99.9,-99.9,-99.9,0,0,100,0.00,40.00,1,0,10,0.32
2013-8-31,75.1,68.6,64.9,-99.9,-99.9,-99.9,0,0,100,0.00,40.00,1,0,6,0.33
2013-9-1,76.3,68.5,64.2,-99.9,-99.9,-99.9,0,0,100,0.00,40.00,1,0,11,0.65
2013-9-2,76.3,68.5,63.9,-99.9,-99.9,-99.9,0,0,100,0.00,40.00,1,0,9,0.00
2013-9-3,75.4,66.9,61.6,-99.9,-99.9,-99.9,0,0,100,0.00,40.00,2,0,9,0.04
2013-9-4,74.3,66.2,59.4,-99.9,-99.9,-99.9,0,0,100,0.00,40.00,1,0,7,0.00
2013-9-5,75.0,65.6,60.9,-99.9,-99.9,-99.9,0,0,100,0.00,40.00,1,0,9,0.00
2013-9-6,68.7,63.4,59.2,-99.9,-99.9,-99.9,0,0,100,0.00,40.00,2,0,9,0.00
2013-9-7,70.2,63.3,58.6,-99.9,-99.9,-99.9,0,0,100,0.00,40.00,1,0,6,0.00
2013-9-8,71.5,66.3,62.0,-99.9,-99.9,-99.9,0,0,100,0.00,40.00,1,0,7,0.00
2013-9-9,73.9,67.9,64.5,-99.9,-99.9,-99.9,0,0,100,0.00,40.00,1,0,8,0.00
2013-9-10,77.6,68.7,62.5,-99.9,-99.9,-99.9,0,0,100,0.00,40.00,1,0,6,0.00
2013-9-11,75.2,68.0,64.0,-99.9,-99.9,-99.9,0,0,100,0.00,40.00,1,0,7,1.13
2013-9-12,75.5,67.3,62.7,-99.9,-99.9,-99.9,0,0,100,0.00,40.00,1,0,10,0.07
2013-9-13,69.4,61.8,54.1,-99.9,-99.9,-99.9,0,0,100,0.00,40.00,2,1,11,0.01
2013-9-14,63.8,55.8,49.3,-99.9,-99.9,-99.9,0,0,100,0.00,40.00,2,0,7,0.00
2013-9-15,65.0,59.0,53.9,-99.9,-99.9,-99.9,0,0,100,0.00,40.00,1,0,6,0.00
2013-9-16,71.2,62.7,57.6,-99.9,-99.9,-99.9,0,0,100,0.00,40.00,2,0,12,0.00
2013-9-17,61.4,56.8,53.8,-99.9,-99.9,-99.9,0,0,100,0.00,40.00,2,0,8,0.00
2013-9-18,59.7,55.6,51.6,-99.9,-99.9,-99.9,0,0,100,0.00,40.00,1,0,5,0.00
2013-9-19,65.8,61.2,57.0,-99.9,-99.9,-99.9,0,0,100,0.00,40.00,0,0,6,0.00
2013-9-20,70.6,64.4,59.9,-99.9,-99.9,-99.9,0,0,100,0.00,40.00,1,0,7,0.03
2013-9-21,64.3,61.0,56.1,-99.9,-99.9,-99.9,0,0,100,0.00,40.00,3,0,12,0.69
2013-9-22,64.1,56.4,50.8,-99.9,-99.9,-99.9,0,0,100,0.00,40.00,1,0,9,0.01
2013-9-23,58.8,55.0,51.6,-99.9,-99.9,-99.9,0,0,100,0.00,40.00,1,0,5,0.00
2013-9-24,65.2,58.6,53.2,-99.9,-99.9,-99.9,0,0,100,0.00,40.00,1,0,8,0.00
2013-9-25,57.6,55.8,52.6,-99.9,-99.9,-99.9,0,0,100,0.00,40.00,1,0,5,0.49
2013-9-26,60.8,55.7,51.8,-99.9,-99.9,-99.9,0,0,100,0.00,40.00,1,0,6,0.01
2013-9-27,62.8,57.3,51.6,-99.9,-99.9,-99.9,0,0,100,0.00,40.00,1,0,6,0.00
2013-9-28,57.5,54.9,51.6,-99.9,-99.9,-99.9,0,0,100,0.00,40.00,1,0,6,0.00
2013-9-29,58.9,54.4,48.8,-99.9,-99.9,-99.9,0,0,100,0.00,40.00,1,0,6,0.00
2013-9-30,61.5,56.1,52.0,-99.9,-99.9,-99.9,0,0,100,0.00,40.00,1,0,6,0.00
2013-10-1,64.7,58.6,53.3,-99.9,-99.9,-99.9,0,0,100,0.00,40.00,1,0,6,0.00
2013-10-2,67.4,61.0,55.0,-99.9,-99.9,-99.9,0,0,100,0.00,40.00,1,0,7,0.00
2013-10-3,67.0,62.3,59.1,-99.9,-99.9,-99.9,0,0,100,0.00,40.00,0,0,1,0.00
2013-10-4,71.5,64.1,58.6,-99.9,-99.9,-99.9,0,0,100,0.00,40.00,1,0,9,0.00
2013-10-5,72.7,65.6,61.2,-99.9,-99.9,-99.9,0,0,100,0.00,40.00,1,0,9,0.00
2013-10-6,70.2,64.6,60.5,-99.9,-99.9,-99.9,0,0,100,0.00,40.00,1,0,8,0.00
2013-10-7,63.7,58.8,50.8,-99.9,-99.9,-99.9,0,0,100,0.00,40.00,2,0,9,1.93
2013-10-8,57.5,51.4,47.8,-99.9,-99.9,-99.9,0,0,100,0.00,40.00,3,1,13,0.00
2013-10-9,59.5,51.7,46.5,-99.9,-99.9,-99.9,0,0,100,0.00,40.00,2,0,9,0.00
2013-10-10,64.7,55.4,48.5,-99.9,-99.9,-99.9,0,0,100,0.00,40.00,2,1,13,0.00
2013-10-11,67.4,58.3,52.8,-99.9,-99.9,-99.9,0,0,100,0.00,40.00,3,1,12,0.00
2013-10-12,61.2,57.7,54.3,-99.9,-99.9,-99.9,0,0,100,0.00,40.00,0,0,7,0.00
2013-10-13,62.7,58.6,55.2,-99.9,-99.9,-99.9,0,0,100,0.00,40.00,1,0,7,0.13
2013-10-14,58.0,56.5,54.8,-99.9,-99.9,-99.9,0,0,100,0.00,40.00,1,0,7,0.05
2013-10-15,59.0,54.5,51.0,-99.9,-99.9,-99.9,0,0,100,0.00,40.00,1,0,6,0.01
2013-10-16,61.2,55.5,49.8,-99.9,-99.9,-99.9,0,0,100,0.00,40.00,1,0,6,0.00
2013-10-17,60.5,57.4,53.7,-99.9,-99.9,-99.9,0,0,100,0.00,40.00,1,0,8,0.05
2013-10-18,60.0,53.0,45.1,-99.9,-99.9,-99.9,0,0,100,0.00,40.00,2,1,8,0.01
2013-10-19,56.5,52.8,47.4,-99.9,-99.9,-99.9,0,0,100,0.00,40.00,1,0,13,0.00
2013-10-20,54.6,47.0,38.0,-99.9,-99.9,-99.9,0,0,100,0.00,40.00,3,0,7,0.00
2013-10-21,58.3,50.8,43.4,-99.9,-99.9,-99.9,0,0,100,0.00,40.00,2,0,8,0.00
2013-10-22,60.1,53.3,48.9,-99.9,-99.9,-99.9,0,0,100,0.00,40.00,1,0,9,0.01
2013-10-23,51.0,43.7,34.4,-99.9,-99.9,-99.9,0,0,100,0.00,40.00,3,2,16,0.01
2013-10-24,45.6,38.6,32.6,-99.9,-99.9,-99.9,0,0,100,0.00,40.00,3,1,12,0.00
2013-10-25,38.8,34.3,28.9,-99.9,-99.9,-99.9,0,0,100,0.00,40.00,4,2,14,0.01
2013-10-26,47.5,39.1,30.0,-99.9,-99.9,-99.9,0,0,100,0.00,40.00,3,1,10,0.00
2013-10-27,58.8,49.5,40.6,-99.9,-99.9,-99.9,0,0,100,0.00,40.00,2,1,15,0.00
2013-10-28,53.8,51.1,48.9,-99.9,-99.9,-99.9,0,0,100,0.00,40.00,0,0,7,0.00
2013-10-29,59.0,52.1,46.3,-99.9,-99.9,-99.9,0,0,100,0.00,40.00,2,0,8,0.00
2013-10-30,64.7,56.9,52.3,-99.9,-99.9,-99.9,0,0,100,0.00,40.00,2,0,10,0.00
2013-10-31,56.8,55.2,53.8,-99.9,-99.9,-99.9,0,0,100,0.00,40.00,5,1,19,0.01
2013-11-1,64.9,57.0,48.8,-99.9,-99.9,-99.9,0,0,100,0.00,40.00,7,2,23,0.07
2013-11-2,54.6,47.1,40.4,-99.9,-99.9,-99.9,0,0,100,0.00,40.00,3,2,12,0.01
2013-11-3,49.5,41.6,35.6,-99.9,-99.9,-99.9,0,0,100,0.00,40.00,4,2,21,0.00
2013-11-4,45.6,40.4,36.1,-99.9,-99.9,-99.9,0,0,100,0.00,40.00,4,1,11,0.00
2013-11-5,48.2,41.2,32.2,-99.9,-99.9,-99.9,0,0,100,0.00,40.00,2,0,9,0.01
2013-11-6,56.5,50.7,47.0,-99.9,-99.9,-99.9,0,0,100,0.00,40.00,2,0,7,0.03
2013-11-7,57.4,47.7,35.4,-99.9,-99.9,-99.9,0,0,100,0.00,40.00,4,1,12,0.01
2013-11-8,46.7,38.4,31.5,-99.9,-99.9,-99.9,0,0,100,0.00,40.00,3,2,14,0.00
2013-11-9,49.6,41.4,33.4,-99.9,-99.9,-99.9,0,0,100,0.00,40.00,2,1,9,0.00
2013-11-10,57.6,47.7,38.8,-99.9,-99.9,-99.9,0,0,100,0.00,40.00,4,2,16,0.00
2013-11-11,51.6,45.4,37.2,-99.9,-99.9,-99.9,0,0,100,0.00,40.00,4,1,10,0.00
2013-11-12,48.7,38.6,21.7,-99.9,-99.9,-99.9,0,0,100,0.00,40.00,6,3,19,0.00
2013-11-13,39.6,28.9,19.3,-99.9,-99.9,-99.9,0,0,100,0.00,40.00,4,2,17,0.00
2013-11-14,51.1,41.2,33.6,-99.9,-99.9,-99.9,0,0,100,0.00,40.00,2,1,14,0.00
2013-11-15,51.6,44.9,37.7,-99.9,-99.9,-99.9,0,0,100,0.00,40.00,3,1,10,0.22
2013-11-16,51.2,48.2,46.4,-99.9,-99.9,-99.9,0,0,100,0.00,40.00,2,0,10,0.01
2013-11-17,54.8,51.5,49.4,-99.9,-99.9,-99.9,0,0,100,0.00,40.00,2,1,11,0.49
2013-11-18,55.6,49.5,38.6,-99.9,-99.9,-99.9,0,0,100,0.00,40.00,5,2,18,0.04
2013-11-19,45.3,37.9,31.5,-99.9,-99.9,-99.9,0,0,100,0.00,40.00,6,2,21,0.00
2013-11-20,40.0,34.3,28.4,-99.9,-99.9,-99.9,0,0,100,0.00,40.00,4,2,13,0.00
2013-11-21,49.8,43.0,33.4,-99.9,-99.9,-99.9,0,0,100,0.00,40.00,1,0,11,0.10
2013-11-22,57.8,52.3,46.8,-99.9,-99.9,-99.9,0,0,100,0.00,40.00,2,1,11,0.04
2013-11-23,51.2,42.5,28.7,-99.9,-99.9,-99.9,0,0,100,0.00,40.00,4,2,15,0.00
2013-11-24,29.5,23.1,17.1,-99.9,-99.9,-99.9,0,0,100,0.00,40.00,5,3,18,0.00
2013-11-25,30.6,25.7,20.5,-99.9,-99.9,-99.9,0,0,100,0.00,40.00,2,1,9,0.01
2013-11-26,45.6,39.3,28.9,-99.9,-99.9,-99.9,0,0,100,0.00,40.00,4,2,18,2.61
2013-11-27,42.9,27.6,17.2,-99.9,-99.9,-99.9,0,0,100,0.00,40.00,8,4,25,0.04
2013-11-28,37.9,28.2,15.5,-99.9,-99.9,-99.9,0,0,100,0.00,40.00,1,0,7,0.03
2013-11-29,46.5,36.3,30.1,-99.9,-99.9,-99.9,0,0,100,0.00,40.00,3,1,9,0.00
2013-11-30,37.4,31.3,25.8,-99.9,-99.9,-99.9,0,0,100,0.00,40.00,2,1,7,0.00
2013-12-1,50.6,41.2,31.8,-99.9,-99.9,-99.9,0,0,100,0.00,40.00,3,1,12,0.00
2013-12-2,48.7,42.0,36.6,-99.9,-99.9,-99.9,0,0,100,0.00,40.00,2,0,7,0.00
2013-12-3,52.3,45.8,39.7,-99.9,-99.9,-99.9,0,0,100,0.00,40.00,2,0,8,0.03
2013-12-4,52.4,49.6,46.8,-99.9,-99.9,-99.9,0,0,100,0.00,40.00,2,0,11,0.01
2013-12-5,58.4,55.8,51.9,-99.9,-99.9,-99.9,0,0,100,0.00,40.00,2,0,9,0.37
2013-12-6,60.7,58.8,53.6,-99.9,-99.9,-99.9,0,0,100,0.00,40.00,4,2,15,0.49
2013-12-7,53.1,45.7,35.5,-99.9,-99.9,-99.9,0,0,100,0.00,40.00,4,2,14,0.01
2013-12-8,35.2,32.2,30.4,-99.9,-99.9,-99.9,0,0,100,0.00,40.00,3,0,10,0.10
2013-12-9,55.0,46.9,34.4,-99.9,-99.9,-99.9,0,0,100,0.00,40.00,5,2,18,0.40
2013-12-10,45.8,37.8,24.8,-99.9,-99.9,-99.9,0,0,100,0.00,40.00,4,2,18,0.27
2013-12-11,42.8,33.1,23.7,-99.9,-99.9,-99.9,0,0,100,0.00,40.00,4,2,14,0.00
2013-12-12,34.3,28.0,23.2,-99.9,-99.9,-99.9,0,0,100,0.00,40.00,3,2,13,0.00
2013-12-13,42.3,33.3,25.3,-99.9,-99.9,-99.9,0,0,100,0.00,40.00,4,1,13,0.00
2013-12-14,41.8,36.2,33.1,-99.9,-99.9,-99.9,0,0,100,0.00,40.00,2,0,7,0.82
2013-12-15,42.2,34.2,27.7,-99.9,-99.9,-99.9,0,0,100,0.00,40.00,5,2,20,0.02
2013-12-16,44.9,37.2,28.3,-99.9,-99.9,-99.9,0,0,100,0.00,40.00,4,2,15,0.01
2013-12-17,50.4,41.2,32.8,-99.9,-99.9,-99.9,0,0,100,0.00,40.00,6,3,22,0.01
2013-12-18,40.4,32.9,25.5,-99.9,-99.9,-99.9,0,0,100,0.00,40.00,6,2,24,0.00
2013-12-19,59.4,48.2,38.9,-99.9,-99.9,-99.9,0,0,100,0.00,40.00,3,1,10,0.00
2013-12-20,54.2,47.0,42.1,-99.9,-99.9,-99.9,0,0,100,0.00,40.00,3,1,12,0.00
2013-12-21,56.1,52.4,46.8,-99.9,-99.9,-99.9,0,0,100,0.00,40.00,6,2,20,0.30
2013-12-22,56.8,54.1,51.8,-99.9,-99.9,-99.9,0,0,100,0.00,40.00,7,2,20,2.50
2013-12-23,54.0,45.7,30.7,-99.9,-99.9,-99.9,0,0,100,0.00,40.00,3,2,16,0.31
2013-12-24,31.8,26.3,18.7,-99.9,-99.9,-99.9,0,0,100,0.00,40.00,4,2,16,0.00
2013-12-25,29.8,23.9,18.7,-99.9,-99.9,-99.9,0,0,100,0.00,40.00,2,1,8,0.00
2013-12-26,41.4,32.8,23.7,-99.9,-99.9,-99.9,0,0,100,0.00,40.00,4,2,14,0.00
2013-12-27,41.4,34.5,28.1,-99.9,-99.9,-99.9,0,0,100,0.00,40.00,3,1,6,0.00
2013-12-28,49.8,42.1,34.2,-99.9,-99.9,-99.9,0,0,100,0.00,40.00,4,1,12,0.29
2013-12-29,46.0,39.7,34.7,-99.9,-99.9,-99.9,0,0,100,0.00,40.00,5,2,19,0.53
2013-12-30,40.3,37.0,34.5,-99.9,-99.9,-99.9,0,0,100,0.00,40.00,5,2,18,0.00
2013-12-31,36.4,31.5,28.3,-99.9,-99.9,-99.9,0,0,100,0.00,40.00,5,2,22,0.01
2014-1-1,39.7,33.9,30.6,-99.9,-99.9,-99.9,0,0,100,0.00,40.00,2,1,7,0.00
2014-1-2,45.1,36.7,18.8,-99.9,-99.9,-99.9,0,0,100,0.00,40.00,6,2,19,0.08